Weather History for Ft Riley, KS

Change the Weather History Date:

Wednesday, December 5, 2012

  Actual Average (KMHK) Record (KMHK)
Temperature  
Mean Temperature 44 °F 34 °F  
Max Temperature 61 °F 45 °F 71 °F (2001)
Min Temperature 27 °F 22 °F 8 °F (2005)
Degree Days  
Heating Degree Days 21 31  
Month to date heating degree days 153  
Since 1 July heating degree days 1228  
Cooling Degree Days 0 0  
Month to date cooling degree days 0  
Year to date cooling degree days 1362  
Moisture  
Dew Point 25 °F    
Average Humidity 53    
Maximum Humidity 99    
Minimum Humidity 21    
Precipitation  
Precipitation 0.00 in 0.04 in 0.90 in (2014)
Month to date precipitation 0.22  
Year to date precipitation 31.75  
Sea Level Pressure  
Sea Level Pressure 30.17 in    
Wind  
Wind Speed 7 mph (South)    
Max Wind Speed 22 mph    
Max Gust Speed 29 mph    
Visibility 10 miles    
Events      
T = Trace of Precipitation, MM = Missing Value Source: NWS Daily Summary

Daily Weather History Graph

Daily Weather History Graph

Search for Another Location

Airport:

Trip Planner

Search our weather history database for the weather conditions in past years. The results will help you decide how hot, cold, wet, or windy it might be!

Date:

Astronomy

Dec. 05, 2012 Rise Set
Actual Time 7:31 AM CST 5:04 PM CST
Civil Twilight 7:01 AM CST 5:34 PM CST
Nautical Twilight 6:28 AM CST 6:07 PM CST
Astronomical Twilight 5:55 AM CST 6:39 PM CST
Moon 11:52 PM CST (12/5) 11:57 AM CST (12/5)
Length of Visible Light 10h 32m
Length of Day
9h 33m
Waning Gibbous, 59% of the Moon is Illuminated
Dec 5
Waning Gibbous
Dec 6
Last Quarter
Dec 13
New
Dec 19
First Quarter
Dec 28
Full

Hourly Weather History & Observations

Time (CST) Temp. Windchill Dew Point Humidity Pressure Visibility Wind Dir Wind Speed Gust Speed Precip Events Conditions
12:55 AM 30.2 °F - 29.3 °F 96% 30.34 in 10.0 mi Calm Calm - N/A   Clear
1:55 AM 30.2 °F - 26.4 °F 86% 30.32 in 10.0 mi Calm Calm - N/A   Clear
2:55 AM 28.8 °F - 28.6 °F 99% 30.33 in 10.0 mi Calm Calm - N/A   Clear
3:55 AM 28.4 °F 24.6 °F 28.0 °F 99% 30.32 in 10.0 mi NNW 3.5 mph - N/A   Clear
4:55 AM 27.3 °F - 27.0 °F 99% 30.32 in 10.0 mi Calm Calm - N/A   Clear
5:55 AM 28.0 °F - 27.0 °F 96% 30.31 in 10.0 mi Calm Calm - N/A   Clear
6:55 AM 28.0 °F - 26.1 °F 92% 30.31 in 10.0 mi Calm Calm - N/A   Clear
8:55 AM 36.3 °F - 33.6 °F 90% 30.28 in 10.0 mi Calm Calm - N/A   Clear
9:55 AM 51.6 °F - 27.7 °F 40% 30.28 in 10.0 mi SSW 15.0 mph - N/A   Clear
10:55 AM 54.3 °F - 27.9 °F 36% 30.27 in 10.0 mi South 10.4 mph - N/A   Clear
11:55 AM 57.4 °F - 25.9 °F 30% 30.22 in 10.0 mi South 16.1 mph - N/A   Clear
12:55 PM 60.1 °F - 24.8 °F 26% 30.19 in 10.0 mi South 15.0 mph - N/A   Clear
1:55 PM 61.7 °F - 21.7 °F 22% 30.13 in 10.0 mi South 17.3 mph 25.3 mph N/A   Clear
2:55 PM 61.9 °F - 20.7 °F 21% 30.09 in 10.0 mi South 20.7 mph - N/A   Clear
3:55 PM 60.1 °F - 19.2 °F 21% 30.08 in 10.0 mi South 19.6 mph - N/A   Clear
4:55 PM 58.3 °F - 19.8 °F 22% 30.06 in 10.0 mi SSE 13.8 mph 23.0 mph N/A   Clear
5:55 PM 55.4 °F - 19.8 °F 25% 30.04 in 10.0 mi SSE 13.8 mph - N/A   Clear
6:55 PM 54.1 °F - 21.6 °F 28% 30.03 in 10.0 mi SSE 15.0 mph - N/A   Clear
7:55 PM 52.2 °F - 23.0 °F 32% 30.02 in 10.0 mi SSE 15.0 mph 23.0 mph N/A   Mostly Cloudy
8:55 PM 50.9 °F - 23.0 °F 34% 29.99 in 10.0 mi SSE 21.9 mph - N/A   Clear
9:55 PM 49.5 °F - 24.4 °F 38% 29.99 in 10.0 mi South 17.3 mph - N/A   Clear
10:55 PM 51.3 °F - 24.8 °F 36% 29.96 in 10.0 mi South 19.6 mph 28.8 mph N/A   Clear
11:55 PM 49.5 °F - 26.1 °F 40% 29.96 in 10.0 mi South 8.1 mph - N/A   Clear